QPF
0.00 0.00 0.00 0.00 0.00 0.00 0.00 0.00 0.00 0.00 0.00 0.00 0.01 0.03 0.03 0.02 0.01 0.02 0.02 0.01 0.01 0.01 0.01 0.02 0.02 0.03 0.04 0.08 0.11 0.15 0.17 0.15 0.12 0.11 0.14 0.16 0.15 0.14 0.14 0.13 0.10 0.08 0.08 0.09
0.00 0.00 0.00 0.00 0.00 0.00 0.00 0.00 0.00 0.00 0.00 0.00 0.00 0.01 0.02 0.03 0.02 0.02 0.02 0.01 0.01 0.01 0.01 0.01 0.01 0.02 0.02 0.04 0.08 0.12 0.16 0.16 0.16 0.13 0.16 0.22 0.29 0.31 0.31 0.29 0.24 0.19 0.16 0.16
0.00 0.00 0.00 0.00 0.00 0.00 0.00 0.00 0.00 0.00 0.00 0.00 0.00 0.01 0.03 0.05 0.04 0.04 0.03 0.02 0.01 0.01 0.01 0.01 0.01 0.01 0.02 0.02 0.03 0.06 0.10 0.14 0.16 0.15 0.22 0.40 0.63 0.75 0.70 0.59 0.46 0.35 0.29 0.26
0.00 0.00 0.00 0.00 0.00 0.00 0.00 0.00 0.00 0.00 0.00 0.00 0.00 0.01 0.03 0.08 0.11 0.10 0.09 0.07 0.06 0.06 0.04 0.02 0.01 0.00 0.00 0.01 0.01 0.02 0.04 0.07 0.11 0.13 0.22 0.43 0.72 0.92 0.95 0.86 0.73 0.58 0.46 0.37
0.00 0.00 0.00 0.00 0.00 0.00 0.00 0.00 0.00 0.00 0.00 0.00 0.00 0.01 0.05 0.10 0.14 0.17 0.20 0.21 0.20 0.16 0.09 0.04 0.03 0.01 0.00 0.00 0.00 0.00 0.00 0.02 0.04 0.08 0.16 0.35 0.58 0.84 1.04 1.06 0.93 0.77 0.66 0.53
0.00 0.00 0.00 0.00 0.00 0.00 0.00 0.00 0.00 0.00 0.00 0.00 0.00 0.01 0.06 0.12 0.19 0.25 0.30 0.27 0.24 0.19 0.12 0.08 0.05 0.02 0.00 0.00 0.00 0.00 0.00 0.00 0.01 0.03 0.09 0.19 0.33 0.53 0.71 0.88 0.97 0.95 0.83 0.66
0.00 0.00 0.00 0.00 0.00 0.00 0.00 0.00 0.00 0.00 0.00 0.00 0.01 0.03 0.08 0.13 0.17 0.22 0.26 0.26 0.22 0.16 0.12 0.09 0.04 0.01 0.00 0.00 0.00 0.00 0.00 0.00 0.00 0.01 0.03 0.06 0.12 0.20 0.29 0.42 0.51 0.55 0.53 0.46
0.00 0.00 0.00 0.00 0.00 0.00 0.00 0.00 0.00 0.00 0.00 0.00 0.01 0.04 0.08 0.09 0.10 0.11 0.14 0.16 0.16 0.14 0.11 0.08 0.05 0.02 0.01 0.01 0.00 0.00 0.00 0.01 0.00 0.00 0.01 0.02 0.04 0.07 0.10 0.15 0.21 0.25 0.25 0.23
0.00 0.00 0.00 0.00 0.00 0.00 0.00 0.00 0.00 0.00 0.00 0.01 0.03 0.06 0.06 0.05 0.05 0.06 0.06 0.07 0.09 0.11 0.12 0.10 0.07 0.05 0.03 0.02 0.01 0.01 0.01 0.01 0.01 0.01 0.01 0.02 0.02 0.03 0.05 0.08 0.11 0.12 0.11 0.10
0.00 0.00 0.00 0.00 0.00 0.00 0.00 0.00 0.00 0.00 0.00 0.01 0.03 0.05 0.05 0.03 0.03 0.06 0.07 0.08 0.10 0.12 0.15 0.14 0.13 0.11 0.07 0.05 0.03 0.02 0.02 0.02 0.02 0.02 0.01 0.02 0.02 0.02 0.03 0.05 0.07 0.10 0.11 0.11
0.00 0.00 0.00 0.00 0.00 0.00 0.00 0.00 0.00 0.00 0.00 0.01 0.04 0.07 0.07 0.07 0.08 0.12 0.13 0.14 0.13 0.17 0.21 0.18 0.17 0.14 0.13 0.09 0.08 0.06 0.05 0.04 0.04 0.03 0.02 0.02 0.03 0.03 0.03 0.03 0.04 0.06 0.06 0.08
0.00 0.00 0.00 0.00 0.00 0.00 0.00 0.00 0.00 0.00 0.00 0.01 0.03 0.07 0.06 0.07 0.10 0.13 0.14 0.14 0.15 0.17 0.19 0.19 0.20 0.16 0.17 0.16 0.14 0.13 0.09 0.06 0.05 0.04 0.03 0.04 0.04 0.04 0.05 0.06 0.06 0.07 0.08 0.09
0.00 0.00 0.00 0.00 0.00 0.00 0.00 0.00 0.00 0.00 0.00 0.00 0.03 0.06 0.04 0.05 0.07 0.10 0.11 0.10 0.09 0.12 0.12 0.11 0.13 0.16 0.15 0.12 0.14 0.12 0.10 0.08 0.08 0.06 0.06 0.06 0.05 0.06 0.05 0.07 0.10 0.11 0.14 0.18
0.00 0.00 0.00 0.00 0.00 0.00 0.00 0.00 0.00 0.00 0.00 0.01 0.02 0.03 0.03 0.04 0.05 0.06 0.07 0.06 0.06 0.06 0.06 0.06 0.08 0.07 0.05 0.05 0.05 0.06 0.06 0.07 0.07 0.07 0.07 0.07 0.07 0.08 0.08 0.09 0.10 0.12 0.16 0.20
0.00 0.00 0.00 0.00 0.00 0.00 0.00 0.00 0.00 0.00 0.00 0.00 0.00 0.01 0.02 0.03 0.03 0.04 0.04 0.04 0.04 0.03 0.03 0.02 0.01 0.01 0.02 0.02 0.02 0.02 0.02 0.03 0.03 0.04 0.03 0.04 0.06 0.05 0.05 0.06 0.06 0.08 0.09 0.11
0.00 0.00 0.00 0.00 0.00 0.00 0.00 0.00 0.00 0.00 0.00 0.00 0.00 0.00 0.00 0.01 0.01 0.02 0.02 0.03 0.02 0.02 0.01 0.00 0.00 0.00 0.00 0.00 0.00 0.00 0.00 0.00 0.01 0.01 0.01 0.01 0.02 0.02 0.02 0.03 0.02 0.04 0.04 0.04
0.00 0.00 0.00 0.00 0.00 0.00 0.00 0.00 0.00 0.00 0.00 0.00 0.00 0.00 0.00 0.00 0.00 0.01 0.01 0.01 0.02 0.01 0.01 0.00 0.00 0.00 0.00 0.00 0.00 0.00 0.00 0.00 0.00 0.00 0.00 0.00 0.00 0.00 0.00 0.00 0.00 0.01 0.01 0.01
0.00 0.00 0.00 0.00 0.00 0.00 0.00 0.00 0.00 0.00 0.00 0.00 0.00 0.00 0.00 0.00 0.00 0.00 0.00 0.01 0.01 0.01 0.00 0.00 0.00 0.00 0.00 0.00 0.00 0.00 0.00 0.00 0.00 0.00 0.00 0.00 0.00 0.00 0.00 0.00 0.00 0.00 0.00 0.00
0.00 0.00 0.00 0.00 0.00 0.00 0.00 0.00 0.00 0.00 0.00 0.00 0.00 0.00 0.00 0.00 0.00 0.00 0.00 0.00 0.00 0.00 0.00 0.00 0.00 0.00 0.00 0.00 0.00 0.00 0.00 0.00 0.00 0.00 0.00 0.00 0.00 0.00 0.00 0.00 0.00 0.00 0.00 0.00
0.00 0.00 0.00 0.00 0.00 0.00 0.00 0.00 0.00 0.00 0.00 0.00 0.00 0.00 0.00 0.00 0.00 0.00 0.00 0.00 0.00 0.00 0.00 0.00 0.00 0.00 0.00 0.00 0.00 0.00 0.00 0.00 0.00 0.00 0.00 0.00 0.00 0.00 0.00 0.00 0.00 0.00 0.00 0.00
0.00 0.00 0.00 0.00 0.00 0.00 0.00 0.00 0.00 0.00 0.00 0.00 0.00 0.00 0.00 0.00 0.00 0.00 0.00 0.00 0.00 0.00 0.00 0.00 0.00 0.00 0.00 0.00 0.00 0.00 0.00 0.00 0.00 0.00 0.00 0.00 0.00 0.00 0.00 0.00 0.00 0.00 0.00 0.00
0.00 0.00 0.00 0.00 0.00 0.00 0.00 0.00 0.00 0.00 0.00 0.00 0.00 0.00 0.00 0.00 0.00 0.00 0.00 0.00 0.00 0.00 0.00 0.00 0.00 0.00 0.00 0.00 0.00 0.00 0.00 0.00 0.00 0.00 0.00 0.00 0.00 0.00 0.00 0.00 0.00 0.00 0.00 0.00
0.00 0.00 0.00 0.00 0.00 0.00 0.00 0.00 0.00 0.00 0.00 0.00 0.00 0.00 0.00 0.00 0.00 0.00 0.00 0.00 0.00 0.00 0.00 0.00 0.00 0.00 0.00 0.00 0.00 0.00 0.00 0.00 0.00 0.00 0.00 0.00 0.00 0.00 0.00 0.00 0.00 0.00 0.00 0.00
0.00 0.00 0.00 0.00 0.00 0.00 0.00 0.00 0.00 0.00 0.00 0.00 0.00 0.00 0.00 0.00 0.00 0.00 0.00 0.00 0.00 0.00 0.00 0.00 0.00 0.00 0.00 0.00 0.00 0.00 0.00 0.00 0.00 0.00 0.00 0.00 0.00 0.00 0.00 0.00 0.00 0.00 0.00 0.00
0.00 0.00 0.00 0.00 0.00 0.00 0.00 0.00 0.00 0.00 0.00 0.00 0.00 0.00 0.00 0.00 0.00 0.00 0.00 0.00 0.00 0.00 0.00 0.00 0.00 0.00 0.00 0.00 0.00 0.00 0.00 0.00 0.00 0.00 0.00 0.00 0.00 0.00 0.00 0.00 0.00 0.00 0.00 0.00
0.00 0.00 0.00 0.00 0.00 0.00 0.00 0.00 0.00 0.00 0.00 0.00 0.00 0.00 0.00 0.00 0.00 0.00 0.00 0.00 0.00 0.00 0.00 0.00 0.00 0.00 0.00 0.00 0.00 0.00 0.00 0.00 0.00 0.00 0.00 0.00 0.00 0.00 0.00 0.00 0.00 0.00 0.00 0.00
MSLP
1015.15 1016.29 1017.19 1017.80 1018.13 1018.24 1018.22 1018.16 1018.16 1018.25 1018.46 1018.75 1019.07 1019.33 1019.49 1019.47 1019.29 1018.94 1018.48 1017.95 1017.41 1016.91 1016.46 1016.07 1015.72 1015.37 1014.98 1014.54 1014.03 1013.45 1012.83 1012.23 1011.68 1011.24 1010.94 1010.79 1010.80 1010.94 1011.19 1011.50 1011.83 1012.16 1012.48 1012.78
1016.52 1017.60 1018.41 1018.92 1019.16 1019.20 1019.13 1019.05 1019.06 1019.20 1019.46 1019.81 1020.18 1020.49 1020.66 1020.65 1020.44 1020.05 1019.54 1018.97 1018.39 1017.85 1017.38 1016.97 1016.61 1016.24 1015.83 1015.35 1014.78 1014.14 1013.45 1012.76 1012.13 1011.59 1011.20 1010.97 1010.90 1010.97 1011.16 1011.42 1011.72 1012.04 1012.35 1012.66
1017.77 1018.72 1019.39 1019.78 1019.92 1019.89 1019.80 1019.74 1019.80 1020.00 1020.34 1020.77 1021.19 1021.54 1021.73 1021.71 1021.47 1021.05 1020.49 1019.86 1019.23 1018.66 1018.16 1017.73 1017.34 1016.96 1016.53 1016.04 1015.44 1014.77 1014.04 1013.30 1012.61 1012.02 1011.57 1011.26 1011.13 1011.13 1011.26 1011.47 1011.73 1012.02 1012.32 1012.63
1018.86 1019.63 1020.13 1020.38 1020.42 1020.35 1020.26 1020.25 1020.38 1020.69 1021.12 1021.63 1022.12 1022.50 1022.70 1022.66 1022.39 1021.91 1021.30 1020.61 1019.93 1019.30 1018.76 1018.30 1017.89 1017.50 1017.06 1016.56 1015.96 1015.29 1014.55 1013.81 1013.10 1012.48 1011.99 1011.64 1011.45 1011.40 1011.47 1011.62 1011.84 1012.10 1012.37 1012.66
1019.81 1020.37 1020.69 1020.80 1020.76 1020.67 1020.61 1020.68 1020.91 1021.33 1021.87 1022.46 1023.01 1023.41 1023.61 1023.53 1023.21 1022.67 1021.99 1021.24 1020.49 1019.81 1019.22 1018.72 1018.28 1017.87 1017.43 1016.93 1016.35 1015.69 1014.98 1014.25 1013.56 1012.95 1012.44 1012.07 1011.85 1011.75 1011.76 1011.87 1012.03 1012.24 1012.48 1012.73
1020.64 1020.99 1021.14 1021.13 1021.04 1020.95 1020.96 1021.12 1021.48 1022.00 1022.64 1023.30 1023.88 1024.29 1024.46 1024.34 1023.95 1023.34 1022.58 1021.76 1020.95 1020.20 1019.56 1019.01 1018.55 1018.11 1017.67 1017.17 1016.62 1016.00 1015.33 1014.64 1013.99 1013.40 1012.91 1012.54 1012.29 1012.16 1012.13 1012.17 1012.28 1012.44 1012.62 1012.82
1021.38 1021.55 1021.56 1021.47 1021.36 1021.31 1021.40 1021.67 1022.14 1022.77 1023.48 1024.18 1024.77 1025.15 1025.26 1025.07 1024.61 1023.92 1023.09 1022.19 1021.32 1020.52 1019.83 1019.24 1018.74 1018.29 1017.84 1017.36 1016.83 1016.24 1015.62 1015.00 1014.39 1013.85 1013.39 1013.03 1012.77 1012.61 1012.54 1012.53 1012.58 1012.67 1012.79 1012.94
1022.01 1022.05 1021.99 1021.87 1021.78 1021.80 1021.98 1022.36 1022.93 1023.63 1024.38 1025.08 1025.63 1025.95 1025.99 1025.71 1025.16 1024.40 1023.50 1022.55 1021.63 1020.79 1020.06 1019.44 1018.92 1018.45 1017.99 1017.52 1017.02 1016.48 1015.91 1015.33 1014.79 1014.29 1013.87 1013.53 1013.27 1013.09 1012.98 1012.92 1012.91 1012.93 1012.98 1013.07
1022.52 1022.50 1022.41 1022.32 1022.30 1022.41 1022.70 1023.17 1023.81 1024.54 1025.29 1025.95 1026.43 1026.66 1026.59 1026.22 1025.59 1024.76 1023.81 1022.82 1021.87 1021.01 1020.26 1019.63 1019.09 1018.62 1018.16 1017.70 1017.22 1016.72 1016.20 1015.68 1015.18 1014.74 1014.35 1014.03 1013.78 1013.58 1013.44 1013.33 1013.26 1013.21 1013.20 1013.21
1022.87 1022.86 1022.82 1022.81 1022.88 1023.10 1023.49 1024.04 1024.71 1025.44 1026.14 1026.72 1027.09 1027.20 1027.02 1026.55 1025.85 1024.96 1023.98 1022.99 1022.04 1021.18 1020.44 1019.82 1019.28 1018.81 1018.36 1017.91 1017.45 1016.98 1016.50 1016.03 1015.58 1015.18 1014.82 1014.52 1014.27 1014.06 1013.89 1013.73 1013.61 1013.50 1013.43 1013.39
1023.05 1023.11 1023.17 1023.27 1023.47 1023.79 1024.26 1024.86 1025.54 1026.22 1026.84 1027.30 1027.54 1027.52 1027.23 1026.67 1025.90 1024.99 1024.01 1023.04 1022.12 1021.29 1020.58 1019.98 1019.46 1019.00 1018.57 1018.14 1017.71 1017.27 1016.82 1016.39 1015.98 1015.61 1015.28 1014.99 1014.74 1014.52 1014.31 1014.13 1013.96 1013.80 1013.68 1013.59
1023.06 1023.24 1023.43 1023.67 1023.99 1024.42 1024.95 1025.56 1026.20 1026.81 1027.31 1027.64 1027.74 1027.60 1027.20 1026.58 1025.77 1024.86 1023.91 1022.98 1022.11 1021.34 1020.68 1020.11 1019.63 1019.19 1018.78 1018.38 1017.97 1017.56 1017.15 1016.75 1016.37 1016.02 1015.71 1015.43 1015.17 1014.94 1014.72 1014.50 1014.30 1014.11 1013.96 1013.83
1022.99 1023.30 1023.62 1023.99 1024.42 1024.92 1025.48 1026.08 1026.65 1027.16 1027.53 1027.72 1027.70 1027.44 1026.97 1026.30 1025.49 1024.61 1023.70 1022.83 1022.03 1021.33 1020.72 1020.21 1019.76 1019.35 1018.97 1018.60 1018.22 1017.84 1017.46 1017.09 1016.74 1016.42 1016.12 1015.84 1015.58 1015.34 1015.10 1014.87 1014.65 1014.45 1014.28 1014.13
1022.93 1023.35 1023.78 1024.24 1024.74 1025.28 1025.83 1026.38 1026.87 1027.26 1027.50 1027.56 1027.43 1027.09 1026.57 1025.89 1025.11 1024.28 1023.44 1022.65 1021.93 1021.29 1020.74 1020.27 1019.86 1019.49 1019.14 1018.80 1018.46 1018.12 1017.77 1017.44 1017.11 1016.80 1016.51 1016.24 1015.98 1015.73 1015.49 1015.26 1015.03 1014.83 1014.65 1014.51
1022.95 1023.44 1023.95 1024.46 1024.98 1025.50 1026.01 1026.47 1026.85 1027.12 1027.24 1027.20 1026.98 1026.60 1026.06 1025.41 1024.69 1023.93 1023.18 1022.47 1021.82 1021.25 1020.75 1020.33 1019.95 1019.61 1019.29 1018.98 1018.68 1018.37 1018.07 1017.76 1017.47 1017.18 1016.91 1016.64 1016.39 1016.14 1015.90 1015.67 1015.46 1015.27 1015.10 1014.97
1023.12 1023.64 1024.15 1024.65 1025.14 1025.60 1026.02 1026.37 1026.63 1026.77 1026.79 1026.67 1026.41 1026.01 1025.51 1024.92 1024.27 1023.61 1022.95 1022.33 1021.75 1021.24 1020.79 1020.39 1020.03 1019.72 1019.42 1019.15 1018.88 1018.61 1018.35 1018.08 1017.82 1017.56 1017.31 1017.06 1016.81 1016.57 1016.35 1016.14 1015.95 1015.78 1015.63 1015.51
1023.43 1023.92 1024.38 1024.82 1025.22 1025.57 1025.87 1026.09 1026.23 1026.26 1026.20 1026.02 1025.75 1025.38 1024.94 1024.43 1023.89 1023.33 1022.77 1022.24 1021.73 1021.26 1020.84 1020.46 1020.12 1019.82 1019.54 1019.29 1019.05 1018.82 1018.60 1018.38 1018.16 1017.93 1017.71 1017.48 1017.26 1017.04 1016.84 1016.65 1016.49 1016.34 1016.22 1016.11
1023.82 1024.23 1024.60 1024.92 1025.20 1025.41 1025.57 1025.65 1025.67 1025.61 1025.49 1025.29 1025.04 1024.73 1024.37 1023.97 1023.54 1023.10 1022.65 1022.19 1021.75 1021.32 1020.92 1020.54 1020.21 1019.91 1019.64 1019.41 1019.20 1019.00 1018.82 1018.65 1018.47 1018.28 1018.10 1017.90 1017.72 1017.53 1017.36 1017.20 1017.07 1016.95 1016.84 1016.74
1024.16 1024.47 1024.72 1024.91 1025.03 1025.10 1025.11 1025.07 1024.98 1024.86 1024.69 1024.51 1024.29 1024.06 1023.81 1023.53 1023.23 1022.90 1022.54 1022.17 1021.78 1021.39 1021.00 1020.63 1020.29 1019.98 1019.72 1019.49 1019.30 1019.14 1019.00 1018.86 1018.73 1018.59 1018.45 1018.30 1018.16 1018.01 1017.88 1017.76 1017.65 1017.55 1017.46 1017.36
1024.34 1024.53 1024.65 1024.70 1024.69 1024.62 1024.51 1024.36 1024.20 1024.02 1023.85 1023.69 1023.54 1023.40 1023.25 1023.09 1022.91 1022.70 1022.44 1022.14 1021.81 1021.45 1021.07 1020.70 1020.35 1020.04 1019.77 1019.55 1019.37 1019.22 1019.11 1019.01 1018.93 1018.84 1018.75 1018.65 1018.56 1018.46 1018.37 1018.29 1018.21 1018.13 1018.04 1017.93
1024.26 1024.34 1024.34 1024.28 1024.15 1023.97 1023.77 1023.55 1023.34 1023.16 1023.00 1022.89 1022.81 1022.75 1022.72 1022.67 1022.60 1022.49 1022.32 1022.09 1021.81 1021.49 1021.13 1020.76 1020.41 1020.09 1019.81 1019.57 1019.40 1019.26 1019.17 1019.10 1019.05 1019.01 1018.97 1018.93 1018.89 1018.85 1018.81 1018.76 1018.71 1018.65 1018.56 1018.44
1023.86 1023.85 1023.77 1023.61 1023.41 1023.17 1022.92 1022.68 1022.47 1022.30 1022.19 1022.13 1022.13 1022.16 1022.22 1022.27 1022.29 1022.27 1022.18 1022.03 1021.80 1021.51 1021.17 1020.82 1020.46 1020.13 1019.84 1019.60 1019.41 1019.28 1019.20 1019.15 1019.12 1019.12 1019.13 1019.14 1019.16 1019.17 1019.18 1019.18 1019.15 1019.10 1019.01 1018.88
1023.16 1023.09 1022.94 1022.74 1022.51 1022.26 1022.02 1021.80 1021.62 1021.51 1021.45 1021.47 1021.54 1021.65 1021.79 1021.92 1022.02 1022.06 1022.04 1021.94 1021.77 1021.52 1021.21 1020.88 1020.53 1020.20 1019.90 1019.65 1019.45 1019.30 1019.21 1019.17 1019.16 1019.18 1019.23 1019.29 1019.36 1019.43 1019.49 1019.53 1019.53 1019.50 1019.41 1019.26
1022.24 1022.12 1021.94 1021.73 1021.51 1021.29 1021.10 1020.95 1020.85 1020.82 1020.85 1020.93 1021.07 1021.25 1021.45 1021.63 1021.78 1021.89 1021.92 1021.87 1021.74 1021.53 1021.27 1020.97 1020.64 1020.31 1020.01 1019.74 1019.53 1019.36 1019.25 1019.20 1019.19 1019.23 1019.30 1019.40 1019.52 1019.64 1019.74 1019.82 1019.86 1019.85 1019.77 1019.62
1021.19 1021.02 1020.83 1020.64 1020.47 1020.33 1020.23 1020.19 1020.19 1020.26 1020.38 1020.54 1020.75 1020.98 1021.21 1021.43 1021.61 1021.74 1021.81 1021.81 1021.72 1021.57 1021.35 1021.08 1020.78 1020.47 1020.17 1019.89 1019.66 1019.46 1019.33 1019.25 1019.24 1019.28 1019.37 1019.49 1019.64 1019.80 1019.95 1020.07 1020.14 1020.15 1020.09 1019.95
1020.10 1019.90 1019.71 1019.56 1019.46 1019.42 1019.44 1019.52 1019.65 1019.83 1020.05 1020.29 1020.55 1020.81 1021.06 1021.29 1021.49 1021.63 1021.72 1021.75 1021.71 1021.60 1021.43 1021.21 1020.95 1020.66 1020.37 1020.09 1019.84 1019.62 1019.46 1019.35 1019.32 1019.34 1019.43 1019.57 1019.74 1019.93 1020.11 1020.27 1020.38 1020.42 1020.38 1020.27
Thickness
5765 5745 5728 5731 5736 5733 5728 5719 5713 5720 5729 5724 5710 5703 5701 5705 5704 5702 5704 5707 5711 5717 5726 5733 5739 5742 5746 5749 5753 5758 5764 5769 5774 5777 5779 5779 5779 5780 5779 5777 5775 5774 5771 5769
5738 5724 5732 5738 5735 5726 5717 5707 5701 5708 5717 5713 5692 5683 5684 5684 5681 5681 5682 5686 5692 5701 5709 5716 5722 5726 5730 5734 5738 5744 5749 5756 5762 5767 5770 5773 5774 5774 5773 5770 5766 5764 5763 5762
5721 5721 5733 5728 5718 5710 5706 5700 5698 5696 5700 5699 5684 5663 5660 5664 5665 5667 5668 5670 5675 5682 5688 5695 5703 5708 5713 5718 5723 5729 5735 5743 5750 5757 5763 5765 5764 5763 5760 5757 5755 5754 5753 5752
5718 5720 5720 5711 5705 5702 5692 5702 5700 5696 5681 5667 5671 5640 5636 5643 5645 5648 5649 5653 5657 5663 5671 5678 5685 5691 5697 5702 5709 5716 5723 5730 5738 5745 5751 5754 5754 5752 5752 5750 5746 5745 5743 5741
5708 5709 5703 5697 5697 5699 5694 5700 5695 5688 5674 5655 5650 5631 5620 5626 5624 5628 5632 5637 5643 5649 5655 5662 5669 5675 5682 5689 5696 5703 5710 5718 5725 5732 5739 5744 5746 5747 5746 5744 5740 5737 5734 5732
5709 5712 5706 5698 5700 5699 5694 5688 5682 5667 5652 5631 5629 5619 5606 5606 5606 5613 5620 5625 5630 5636 5643 5649 5656 5663 5670 5678 5685 5691 5698 5705 5712 5719 5726 5731 5734 5736 5736 5735 5732 5728 5726 5725
5694 5695 5699 5697 5684 5685 5676 5658 5641 5632 5620 5615 5621 5609 5596 5600 5603 5605 5610 5615 5620 5627 5632 5639 5646 5653 5661 5668 5675 5681 5687 5693 5700 5706 5712 5717 5720 5723 5725 5725 5723 5720 5718 5716
5677 5668 5683 5684 5676 5669 5664 5649 5626 5616 5610 5609 5610 5600 5594 5600 5602 5604 5606 5609 5614 5619 5626 5632 5639 5646 5653 5659 5666 5671 5677 5682 5688 5694 5699 5704 5707 5709 5711 5712 5712 5710 5709 5708
5672 5666 5682 5682 5677 5668 5654 5642 5641 5622 5618 5605 5601 5599 5600 5601 5599 5601 5602 5605 5608 5614 5620 5627 5634 5640 5645 5651 5657 5662 5667 5672 5677 5683 5687 5691 5694 5696 5697 5698 5698 5698 5698 5698
5685 5666 5673 5676 5671 5664 5656 5646 5627 5615 5602 5593 5596 5591 5584 5588 5591 5595 5597 5599 5603 5610 5616 5623 5629 5634 5639 5644 5650 5655 5658 5662 5667 5672 5676 5680 5682 5684 5685 5685 5685 5685 5685 5686
5689 5665 5658 5659 5650 5644 5644 5637 5625 5610 5603 5592 5585 5583 5589 5586 5589 5591 5594 5598 5602 5608 5613 5618 5624 5630 5635 5640 5645 5649 5652 5655 5659 5662 5665 5669 5671 5673 5674 5674 5675 5675 5675 5676
5683 5658 5646 5654 5659 5658 5646 5636 5624 5607 5596 5592 5586 5583 5597 5593 5593 5594 5598 5602 5605 5610 5615 5619 5624 5628 5632 5636 5640 5643 5646 5649 5652 5655 5658 5660 5662 5664 5665 5666 5666 5667 5667 5668
5682 5659 5638 5639 5641 5647 5641 5636 5627 5612 5598 5592 5587 5586 5603 5600 5600 5602 5603 5606 5609 5614 5618 5621 5624 5626 5630 5633 5636 5639 5642 5645 5648 5650 5652 5654 5655 5657 5658 5659 5660 5661 5662 5662
5688 5662 5650 5641 5637 5642 5636 5633 5628 5615 5598 5592 5591 5592 5599 5602 5603 5606 5608 5611 5614 5618 5621 5623 5624 5627 5630 5632 5634 5637 5640 5643 5645 5647 5648 5649 5650 5652 5652 5654 5655 5656 5657 5657
5687 5665 5663 5658 5658 5651 5642 5635 5629 5619 5609 5599 5600 5599 5604 5608 5609 5611 5614 5617 5620 5623 5626 5627 5628 5629 5631 5633 5635 5637 5639 5641 5643 5644 5645 5645 5647 5648 5649 5650 5650 5651 5651 5651
5687 5672 5666 5660 5660 5654 5643 5639 5634 5627 5620 5614 5611 5610 5618 5619 5618 5617 5620 5622 5623 5626 5629 5631 5633 5634 5634 5635 5636 5638 5639 5640 5642 5642 5642 5643 5644 5645 5645 5645 5645 5644 5644 5643
5684 5674 5660 5650 5658 5651 5636 5643 5640 5634 5632 5625 5618 5621 5627 5624 5625 5625 5627 5628 5628 5630 5633 5634 5636 5637 5638 5639 5639 5639 5640 5641 5641 5641 5641 5641 5641 5641 5640 5640 5639 5638 5637 5636
5690 5675 5658 5652 5651 5639 5649 5661 5655 5645 5642 5640 5638 5636 5635 5634 5634 5635 5636 5635 5634 5636 5636 5638 5640 5641 5643 5643 5643 5643 5643 5642 5641 5641 5640 5640 5639 5638 5637 5636 5634 5632 5631 5630
5696 5683 5664 5650 5647 5647 5655 5662 5659 5648 5644 5651 5646 5645 5644 5642 5638 5636 5643 5644 5642 5643 5643 5644 5645 5647 5647 5648 5648 5646 5645 5644 5642 5641 5640 5639 5637 5635 5633 5631 5629 5628 5626 5623
5696 5684 5669 5659 5654 5647 5662 5673 5674 5659 5644 5658 5655 5651 5647 5643 5628 5632 5647 5650 5649 5650 5650 5650 5651 5652 5652 5652 5652 5650 5647 5646 5644 5643 5641 5639 5636 5633 5630 5628 5626 5624 5621 5618
5690 5683 5673 5665 5662 5666 5681 5682 5674 5646 5650 5665 5662 5657 5653 5645 5641 5646 5654 5655 5654 5655 5655 5656 5655 5655 5655 5656 5655 5652 5650 5649 5648 5646 5643 5639 5636 5632 5629 5626 5623 5620 5617 5614
5691 5681 5675 5666 5665 5670 5690 5683 5670 5670 5676 5673 5667 5664 5661 5658 5658 5659 5659 5658 5657 5657 5658 5658 5657 5657 5659 5660 5658 5655 5653 5654 5652 5648 5643 5639 5635 5632 5628 5624 5621 5617 5614 5610
5701 5699 5690 5686 5686 5700 5699 5696 5694 5689 5681 5677 5673 5671 5669 5665 5663 5663 5661 5660 5660 5660 5660 5660 5659 5659 5661 5661 5661 5658 5657 5657 5654 5649 5644 5639 5635 5630 5627 5623 5618 5614 5611 5607
5715 5712 5703 5699 5702 5706 5705 5705 5702 5697 5689 5684 5681 5677 5673 5669 5667 5665 5662 5661 5661 5661 5661 5661 5661 5660 5660 5662 5662 5661 5661 5660 5656 5651 5645 5640 5635 5630 5626 5622 5618 5613 5609 5605
5720 5717 5707 5703 5708 5707 5707 5707 5705 5700 5695 5690 5686 5682 5677 5673 5671 5668 5665 5664 5663 5663 5663 5663 5661 5661 5661 5663 5663 5663 5663 5661 5657 5652 5647 5642 5637 5631 5626 5622 5617 5614 5610 5606
5722 5719 5711 5709 5714 5709 5709 5712 5710 5703 5697 5693 5688 5683 5681 5677 5674 5671 5668 5667 5666 5665 5664 5664 5663 5663 5663 5664 5664 5664 5664 5663 5659 5654 5649 5644 5639 5633 5628 5623 5619 5616 5613 5610